Satellite-Ground Cal/Val Region Overpasses Predictions

Prediction of Satellite NPP Overpassing Cal/Val Region: PacNW

Region Location: (Latitude: 10.00, Longitude: 139.50) to (Latitude: 22.70, Longitude: 165.60).

Table of predicted overpasses for the next 14.0 days since TLE Epoch: 2/28/2020
Interval Starting Time Starting Location Ending Time Ending Location
1 02/29/2020 03:23:18 ( 10.01, 148.80) 02/29/2020 03:26:54 ( 22.69, 145.78)
2 02/29/2020 15:55:12 ( 22.66, 146.03) 02/29/2020 15:58:47 ( 10.04, 143.02)
3 03/01/2020 03:04:16 ( 10.02, 153.55) 03/01/2020 03:07:52 ( 22.70, 150.54)
4 03/01/2020 15:36:10 ( 22.65, 150.78) 03/01/2020 15:39:45 ( 10.03, 147.78)
5 03/02/2020 02:45:15 ( 10.02, 158.31) 03/02/2020 02:48:50 ( 22.65, 155.31)
6 03/02/2020 15:17:09 ( 22.65, 155.54) 03/02/2020 15:20:44 ( 10.02, 152.53)
7 03/03/2020 02:26:14 ( 10.03, 163.06) 03/03/2020 02:29:49 ( 22.65, 160.06)
8 03/03/2020 14:58:06 ( 22.70, 160.30) 03/03/2020 15:01:42 ( 10.02, 157.29)
9 03/04/2020 02:09:53 ( 19.49, 165.60) 03/04/2020 02:10:47 ( 22.66, 164.82)
10 03/04/2020 03:48:42 ( 10.04, 142.44) 03/04/2020 03:52:12 ( 22.37, 139.51)
11 03/04/2020 14:39:05 ( 22.69, 165.06) 03/04/2020 14:42:41 ( 10.01, 162.04)
12 03/04/2020 16:20:35 ( 22.69, 139.68) 03/04/2020 16:20:47 ( 21.98, 139.51)
13 03/05/2020 03:29:41 ( 10.05, 147.20) 03/05/2020 03:33:16 ( 22.67, 144.20)
14 03/05/2020 16:01:33 ( 22.68, 144.44) 03/05/2020 16:05:08 ( 10.06, 141.43)
15 03/06/2020 03:10:38 ( 10.00, 151.97) 03/06/2020 03:14:14 ( 22.68, 148.95)
16 03/06/2020 15:42:32 ( 22.67, 149.19) 03/06/2020 15:46:07 ( 10.05, 146.19)
17 03/07/2020 02:51:37 ( 10.01, 156.72) 03/07/2020 02:55:13 ( 22.69, 153.70)
18 03/07/2020 15:23:30 ( 22.66, 153.95) 03/07/2020 15:27:05 ( 10.04, 150.94)
19 03/08/2020 02:32:35 ( 10.02, 161.47) 03/08/2020 02:36:10 ( 22.64, 158.47)
20 03/08/2020 15:04:29 ( 22.65, 158.70) 03/08/2020 15:08:04 ( 10.03, 155.70)
21 03/09/2020 02:14:21 ( 12.79, 165.59) 03/09/2020 02:17:09 ( 22.65, 163.23)
22 03/09/2020 03:55:04 ( 10.03, 140.85) 03/09/2020 03:56:43 ( 15.85, 139.50)
23 03/09/2020 14:45:26 ( 22.70, 163.47) 03/09/2020 14:49:02 ( 10.02, 160.45)
24 03/10/2020 03:36:02 ( 10.05, 145.61) 03/10/2020 03:39:37 ( 22.67, 142.61)
25 03/10/2020 14:29:32 ( 11.71, 165.60) 03/10/2020 14:30:01 ( 10.01, 165.21)
26 03/10/2020 16:07:55 ( 22.68, 142.85) 03/10/2020 16:11:31 ( 10.00, 139.83)
27 03/11/2020 03:17:01 ( 10.06, 150.36) 03/11/2020 03:20:36 ( 22.68, 147.36)
28 03/11/2020 15:48:54 ( 22.67, 147.60) 03/11/2020 15:52:29 ( 10.05, 144.60)
29 03/12/2020 02:57:58 ( 10.01, 155.13) 03/12/2020 03:01:34 ( 22.69, 152.11)
30 03/12/2020 15:29:52 ( 22.66, 152.35) 03/12/2020 15:33:27 ( 10.04, 149.35)
31 03/13/2020 02:38:57 ( 10.02, 159.88) 03/13/2020 02:42:32 ( 22.64, 156.88)


NCC Satellite Cal/Val Overpasses Prediction Service
